| time (UTC) | temp F | wind direction | speed MPH | gust MPH | rain 1hr in | rain 24hr in | rain mn in | humidity % | barometer mb |
| 20260905032012 | 64 | 287 | 4.0 | 18.0 | 0.00 | 0.00 | 0.00 | 38 | 1018.2 |
| 20260905031515 | 64 | 250 | 9.0 | 18.0 | 0.00 | 0.00 | 0.00 | 37 | 1018.0 |
| 20260905031010 | 65 | 283 | 10.0 | 17.0 | 0.00 | 0.00 | 0.00 | 37 | 1017.9 |
| 20260905030511 | 65 | 265 | 8.0 | 16.0 | 0.00 | 0.00 | 0.00 | 35 | 1017.8 |
| 20260905030012 | 65 | 231 | 8.0 | 16.0 | 0.00 | 0.00 | 0.00 | 35 | 1017.8 |
| 20260905025510 | 65 | 250 | 7.0 | 13.0 | 0.00 | 0.00 | 0.00 | 35 | 1017.9 |
| 20260905025010 | 65 | 245 | 6.0 | 13.0 | 0.00 | 0.00 | 0.00 | 35 | 1017.9 |
| 20260905024509 | 66 | 273 | 8.0 | 14.0 | 0.00 | 0.00 | 0.00 | 35 | 1017.8 |
| 20260905024008 | 66 | 279 | 9.0 | 16.0 | 0.00 | 0.00 | 0.00 | 34 | 1017.7 |
| 20260905023509 | 66 | 264 | 7.0 | 17.0 | 0.00 | 0.00 | 0.00 | 34 | 1017.8 |
| 20260905023015 | 66 | 265 | 10.0 | 17.0 | 0.00 | 0.00 | 0.00 | 34 | 1017.6 |
| 20260905022506 | 66 | 280 | 6.0 | 19.0 | 0.00 | 0.00 | 0.00 | 33 | 1017.6 |
| 20260905022009 | 67 | 263 | 10.0 | 21.0 | 0.00 | 0.00 | 0.00 | 33 | 1017.6 |
| 20260905021505 | 67 | 265 | 13.0 | 21.0 | 0.00 | 0.00 | 0.00 | 34 | 1017.4 |
| 20260905021005 | 67 | 249 | 12.0 | 19.0 | 0.00 | 0.00 | 0.00 | 32 | 1017.4 |
| 20260905020504 | 68 | 290 | 11.0 | 18.0 | 0.00 | 0.00 | 0.00 | 32 | 1017.4 |
| 20260905020004 | 68 | 297 | 7.0 | 16.0 | 0.00 | 0.00 | 0.00 | 31 | 1017.4 |
| 20260905015503 | 69 | 269 | 3.0 | 16.0 | 0.00 | 0.00 | 0.00 | 30 | 1017.3 |
| 20260905015002 | 69 | 288 | 9.0 | 17.0 | 0.00 | 0.00 | 0.00 | 29 | 1017.3 |
| 20260905014503 | 69 | 256 | 10.0 | 17.0 | 0.00 | 0.00 | 0.00 | 29 | 1017.2 |
| 20260905014002 | 69 | 287 | 6.0 | 17.0 | 0.00 | 0.00 | 0.00 | 28 | 1017.2 |
| 20260905013501 | 69 | 305 | 10.0 | 25.0 | 0.00 | 0.00 | 0.00 | 30 | 1017.2 |
| 20260905013001 | 69 | 309 | 10.0 | 25.0 | 0.00 | 0.00 | 0.00 | 29 | 1017.1 |
| 20260905012601 | 69 | 263 | 9.0 | 24.0 | 0.00 | 0.00 | 0.00 | 28 | 1017.0 |
| 20260905012100 | 70 | 245 | 13.0 | 24.0 | 0.00 | 0.00 | 0.00 | 28 | 1017.0 |
| 20260905011618 | 70 | 273 | 6.0 | 16.0 | 0.00 | 0.00 | 0.00 | 27 | 1016.9 |
| 20260905011059 | 71 | 215 | 6.0 | 19.0 | 0.00 | 0.00 | 0.00 | 27 | 1016.9 |
| 20260905010600 | 71 | 244 | 9.0 | 19.0 | 0.00 | 0.00 | 0.00 | 27 | 1016.7 |
| 20260905010059 | 71 | 210 | 11.0 | 25.0 | 0.00 | 0.00 | 0.00 | 27 | 1016.7 |
| 20260905005559 | 72 | 189 | 7.0 | 21.0 | 0.00 | 0.00 | 0.00 | 27 | 1016.7 |
| 20260905005100 | 72 | 250 | 7.0 | 20.0 | 0.00 | 0.00 | 0.00 | 26 | 1016.7 |
| 20260905004559 | 72 | 192 | 10.0 | 24.0 | 0.00 | 0.00 | 0.00 | 26 | 1016.6 |
| 20260905004059 | 72 | 194 | 9.0 | 24.0 | 0.00 | 0.00 | 0.00 | 26 | 1016.6 |
| 20260905003559 | 72 | 173 | 13.0 | 24.0 | 0.00 | 0.00 | 0.00 | 26 | 1016.6 |
| 20260905003059 | 72 | 226 | 10.0 | 24.0 | 0.00 | 0.00 | 0.00 | 25 | 1016.4 |
| 20260905002601 | 72 | 213 | 10.0 | 28.0 | 0.00 | 0.00 | 0.00 | 26 | 1016.4 |
| 20260905002102 | 72 | 194 | 12.0 | 28.0 | 0.00 | 0.00 | 0.00 | 26 | 1016.4 |
| 20260905001608 | 72 | 246 | 15.0 | 27.0 | 0.00 | 0.00 | 0.00 | 25 | 1016.3 |
| 20260905001057 | 72 | 280 | 11.0 | 28.0 | 0.00 | 0.00 | 0.00 | 25 | 1016.3 |
| 20260905000559 | 72 | 329 | 14.0 | 28.0 | 0.00 | 0.00 | 0.00 | 26 | 1016.3 |
| 20260905000100 | 73 | 263 | 14.0 | 27.0 | 0.00 | 0.00 | 0.00 | 25 | 1016.3 |
| 20260904235557 | 72 | 265 | 13.0 | 31.0 | 0.00 | 0.00 | 0.00 | 26 | 1016.1 |
| 20260904235158 | 72 | 250 | 18.0 | 31.0 | 0.00 | 0.00 | 0.00 | 25 | 1016.1 |
| 20260904234556 | 73 | 240 | 17.0 | 28.0 | 0.00 | 0.00 | 0.00 | 25 | 1016.1 |
| 20260904234058 | 73 | 223 | 15.0 | 33.0 | 0.00 | 0.00 | 0.00 | 25 | 1016.1 |
| 20260904233559 | 73 | 272 | 17.0 | 33.0 | 0.00 | 0.00 | 0.00 | 24 | 1016.1 |
| 20260904233106 | 74 | 221 | 9.0 | 27.0 | 0.00 | 0.00 | 0.00 | 24 | 1016.0 |
| 20260904232555 | 73 | 262 | 10.0 | 34.0 | 0.00 | 0.00 | 0.00 | 25 | 1016.0 |
| 20260904232056 | 73 | 290 | 13.0 | 34.0 | 0.00 | 0.00 | 0.00 | 25 | 1015.8 |
| 20260904231555 | 73 | 224 | 14.0 | 24.0 | 0.00 | 0.00 | 0.00 | 25 | 1015.9 |
| 20260904231055 | 74 | 186 | 15.0 | 24.0 | 0.00 | 0.00 | 0.00 | 24 | 1015.9 |
| 20260904230554 | 74 | 198 | 11.0 | 25.0 | 0.00 | 0.00 | 0.00 | 24 | 1016.0 |
| 20260904230054 | 73 | 236 | 13.0 | 25.0 | 0.00 | 0.00 | 0.00 | 25 | 1015.8 |
| 20260904225554 | 74 | 215 | 15.0 | 28.0 | 0.00 | 0.00 | 0.00 | 24 | 1015.9 |
| 20260904225054 | 74 | 196 | 15.0 | 28.0 | 0.00 | 0.00 | 0.00 | 24 | 1015.7 |
| 20260904224553 | 75 | 169 | 15.0 | 26.0 | 0.00 | 0.00 | 0.00 | 23 | 1015.8 |
| 20260904224053 | 74 | 177 | 14.0 | 22.0 | 0.00 | 0.00 | 0.00 | 24 | 1015.9 |
| 20260904223553 | 74 | 190 | 13.0 | 26.0 | 0.00 | 0.00 | 0.00 | 24 | 1016.0 |
| 20260904223055 | 74 | 240 | 13.0 | 26.0 | 0.00 | 0.00 | 0.00 | 25 | 1015.9 |
| 20260904222553 | 74 | 229 | 13.0 | 25.0 | 0.00 | 0.00 | 0.00 | 24 | 1015.9 |
| 20260904222052 | 76 | 210 | 12.0 | 25.0 | 0.00 | 0.00 | 0.00 | 24 | 1016.0 |
| 20260904221554 | 75 | 238 | 13.0 | 25.0 | 0.00 | 0.00 | 0.00 | 25 | 1015.9 |
| 20260904221051 | 75 | 188 | 12.0 | 29.0 | 0.00 | 0.00 | 0.00 | 25 | 1015.9 |
| 20260904220551 | 75 | 226 | 13.0 | 31.0 | 0.00 | 0.00 | 0.00 | 25 | 1016.1 |
| 20260904220150 | 74 | 236 | 13.0 | 31.0 | 0.00 | 0.00 | 0.00 | 26 | 1016.1 |
| 20260904215549 | 74 | 269 | 10.0 | 26.0 | 0.00 | 0.00 | 0.00 | 26 | 1016.1 |
| 20260904215050 | 75 | 244 | 10.0 | 33.0 | 0.00 | 0.00 | 0.00 | 25 | 1016.1 |
| 20260904214550 | 74 | 188 | 14.0 | 33.0 | 0.00 | 0.00 | 0.00 | 26 | 1016.2 |
| 20260904214049 | 74 | 267 | 11.0 | 27.0 | 0.00 | 0.00 | 0.00 | 26 | 1016.1 |
| 20260904213547 | 73 | 251 | 14.0 | 26.0 | 0.00 | 0.00 | 0.00 | 27 | 1016.2 |
| 20260904213050 | 73 | 232 | 13.0 | 22.0 | 0.00 | 0.00 | 0.00 | 26 | 1016.3 |
| 20260904212549 | 73 | 223 | 12.0 | 22.0 | 0.00 | 0.00 | 0.00 | 27 | 1016.2 |
| 20260904212047 | 73 | 239 | 14.0 | 23.0 | 0.00 | 0.00 | 0.00 | 26 | 1016.2 |
| 20260904211547 | 74 | 260 | 12.0 | 27.0 | 0.00 | 0.00 | 0.00 | 26 | 1016.2 |
| 20260904211046 | 73 | 263 | 13.0 | 27.0 | 0.00 | 0.00 | 0.00 | 27 | 1016.2 |
| 20260904210548 | 73 | 240 | 13.0 | 24.0 | 0.00 | 0.00 | 0.00 | 26 | 1016.2 |
| 20260904210044 | 73 | 234 | 15.0 | 23.0 | 0.00 | 0.00 | 0.00 | 26 | 1016.3 |
| 20260904205546 | 72 | 215 | 13.0 | 21.0 | 0.00 | 0.00 | 0.00 | 27 | 1016.3 |
| 20260904205043 | 71 | 227 | 11.0 | 22.0 | 0.00 | 0.00 | 0.00 | 28 | 1016.2 |
| 20260904204544 | 72 | 210 | 9.0 | 23.0 | 0.00 | 0.00 | 0.00 | 28 | 1016.3 |
| 20260904204043 | 72 | 211 | 11.0 | 24.0 | 0.00 | 0.00 | 0.00 | 27 | 1016.3 |
| 20260904203543 | 72 | 219 | 14.0 | 24.0 | 0.00 | 0.00 | 0.00 | 27 | 1016.2 |
| 20260904203044 | 72 | 254 | 10.0 | 24.0 | 0.00 | 0.00 | 0.00 | 28 | 1016.2 |
| 20260904202541 | 71 | 202 | 12.0 | 24.0 | 0.00 | 0.00 | 0.00 | 28 | 1016.3 |
| 20260904202040 | 70 | 196 | 12.0 | 22.0 | 0.00 | 0.00 | 0.00 | 28 | 1016.4 |
| 20260904201549 | 70 | 214 | 11.0 | 22.0 | 0.00 | 0.00 | 0.00 | 28 | 1016.3 |
| 20260904201040 | 69 | 217 | 11.0 | 22.0 | 0.00 | 0.00 | 0.00 | 28 | 1016.3 |
| 20260904200539 | 70 | 195 | 14.0 | 23.0 | 0.00 | 0.00 | 0.00 | 29 | 1016.4 |
| 20260904200038 | 69 | 217 | 12.0 | 23.0 | 0.00 | 0.00 | 0.00 | 30 | 1016.3 |
| 20260904195537 | 69 | 259 | 13.0 | 23.0 | 0.00 | 0.00 | 0.00 | 31 | 1016.2 |
| 20260904195041 | 69 | 240 | 8.0 | 20.0 | 0.00 | 0.00 | 0.00 | 31 | 1016.3 |
| 20260904194537 | 69 | 230 | 10.0 | 20.0 | 0.00 | 0.00 | 0.00 | 31 | 1016.4 |
| 20260904194035 | 68 | 315 | 5.0 | 12.0 | 0.00 | 0.00 | 0.00 | 36 | 1016.5 |
| 20260904193535 | 68 | 304 | 4.0 | 12.0 | 0.00 | 0.00 | 0.00 | 39 | 1016.6 |
| 20260904193035 | 67 | 336 | 7.0 | 12.0 | 0.00 | 0.00 | 0.00 | 41 | 1016.7 |
| 20260904192533 | 67 | 284 | 5.0 | 10.0 | 0.00 | 0.00 | 0.00 | 42 | 1016.6 |
| 20260904192034 | 67 | 196 | 6.0 | 13.0 | 0.00 | 0.00 | 0.00 | 42 | 1016.7 |
| 20260904191536 | 67 | 38 | 0.0 | 13.0 | 0.00 | 0.00 | 0.00 | 44 | 1016.7 |
| 20260904191030 | 66 | 333 | 4.0 | 13.0 | 0.00 | 0.00 | 0.00 | 46 | 1016.7 |
| 20260904190529 | 65 | 341 | 7.0 | 13.0 | 0.00 | 0.00 | 0.00 | 48 | 1016.8 |
| 20260904190028 | 65 | 318 | 8.0 | 13.0 | 0.00 | 0.00 | 0.00 | 49 | 1016.8 |
| 20260904185529 | 65 | 321 | 6.0 | 15.0 | 0.00 | 0.00 | 0.00 | 51 | 1016.8 |
| 20260904185029 | 64 | 266 | 8.0 | 15.0 | 0.00 | 0.00 | 0.00 | 52 | 1016.9 |
| 20260904184531 | 63 | 355 | 8.0 | 16.0 | 0.00 | 0.00 | 0.00 | 54 | 1016.9 |
| 20260904184031 | 64 | 279 | 7.0 | 14.0 | 0.00 | 0.00 | 0.00 | 54 | 1016.9 |
| 20260904183532 | 63 | 261 | 9.0 | 14.0 | 0.00 | 0.00 | 0.00 | 55 | 1017.0 |
| 20260904183027 | 64 | 344 | 8.0 | 15.0 | 0.00 | 0.00 | 0.00 | 53 | 1017.0 |
| 20260904182527 | 65 | 96 | 6.0 | 15.0 | 0.00 | 0.00 | 0.00 | 52 | 1017.1 |
| 20260904182028 | 65 | 348 | 8.0 | 19.0 | 0.00 | 0.00 | 0.00 | 53 | 1016.9 |
| 20260904181525 | 65 | 281 | 5.0 | 16.0 | 0.00 | 0.00 | 0.00 | 55 | 1016.9 |
| 20260904181025 | 63 | 271 | 9.0 | 17.0 | 0.00 | 0.00 | 0.00 | 57 | 1016.9 |
| 20260904180528 | 63 | 301 | 8.0 | 17.0 | 0.00 | 0.00 | 0.00 | 59 | 1016.9 |
| 20260904180023 | 62 | 337 | 8.0 | 17.0 | 0.00 | 0.00 | 0.00 | 61 | 1016.9 |
| 20260904175523 | 62 | 271 | 9.0 | 16.0 | 0.00 | 0.00 | 0.00 | 59 | 1017.0 |
| 20260904175023 | 62 | 5 | 6.0 | 16.0 | 0.00 | 0.00 | 0.00 | 58 | 1017.1 |
| 20260904174527 | 62 | 314 | 8.0 | 16.0 | 0.00 | 0.00 | 0.00 | 59 | 1017.0 |
| 20260904174022 | 61 | 346 | 7.0 | 21.0 | 0.00 | 0.00 | 0.00 | 63 | 1016.9 |
| 20260904173521 | 60 | 275 | 10.0 | 21.0 | 0.00 | 0.00 | 0.00 | 64 | 1017.0 |
| 20260904173024 | 61 | 303 | 6.0 | 18.0 | 0.00 | 0.00 | 0.00 | 63 | 1016.9 |
| 20260904172527 | 61 | 279 | 9.0 | 18.0 | 0.00 | 0.00 | 0.00 | 62 | 1016.9 |
| 20260904172022 | 61 | 276 | 6.0 | 15.0 | 0.00 | 0.00 | 0.00 | 60 | 1016.9 |
| 20260904171530 | 60 | 286 | 5.0 | 17.0 | 0.00 | 0.00 | 0.00 | 64 | 1016.9 |
| 20260904171019 | 60 | 338 | 7.0 | 15.0 | 0.00 | 0.00 | 0.00 | 64 | 1016.8 |
| 20260904170518 | 60 | 314 | 8.0 | 15.0 | 0.00 | 0.00 | 0.00 | 64 | 1016.8 |
| 20260904170018 | 60 | 279 | 7.0 | 16.0 | 0.00 | 0.00 | 0.00 | 66 | 1016.7 |
| 20260904165518 | 60 | 280 | 8.0 | 15.0 | 0.00 | 0.00 | 0.00 | 65 | 1016.7 |
| 20260904165018 | 60 | 319 | 8.0 | 16.0 | 0.00 | 0.00 | 0.00 | 64 | 1016.7 |
| 20260904164517 | 59 | 288 | 9.0 | 16.0 | 0.00 | 0.00 | 0.00 | 64 | 1016.7 |
| 20260904164017 | 59 | 360 | 6.0 | 17.0 | 0.00 | 0.00 | 0.00 | 66 | 1016.6 |
| 20260904163522 | 59 | 264 | 9.0 | 16.0 | 0.00 | 0.00 | 0.00 | 65 | 1016.5 |
| 20260904163020 | 59 | 278 | 11.0 | 16.0 | 0.00 | 0.00 | 0.00 | 65 | 1016.5 |
| 20260904162516 | 59 | 314 | 11.0 | 16.0 | 0.00 | 0.00 | 0.00 | 65 | 1016.5 |
| 20260904162014 | 59 | 282 | 7.0 | 16.0 | 0.00 | 0.00 | 0.00 | 66 | 1016.6 |
| 20260904161516 | 59 | 321 | 8.0 | 18.0 | 0.00 | 0.00 | 0.00 | 67 | 1016.5 |
| 20260904161015 | 59 | 30 | 10.0 | 18.0 | 0.00 | 0.00 | 0.00 | 66 | 1016.4 |
| 20260904160518 | 59 | 317 | 7.0 | 16.0 | 0.00 | 0.00 | 0.00 | 66 | 1016.5 |
| 20260904160012 | 60 | 301 | 9.0 | 16.0 | 0.00 | 0.00 | 0.00 | 65 | 1016.5 |
| 20260904155510 | 60 | 279 | 8.0 | 15.0 | 0.00 | 0.00 | 0.00 | 67 | 1016.4 |
| 20260904155012 | 60 | 292 | 8.0 | 14.0 | 0.00 | 0.00 | 0.00 | 66 | 1016.5 |
| 20260904154511 | 60 | 298 | 5.0 | 14.0 | 0.00 | 0.00 | 0.00 | 65 | 1016.3 |
| 20260904154010 | 60 | 324 | 6.0 | 15.0 | 0.00 | 0.00 | 0.00 | 65 | 1016.4 |
| 20260904153508 | 60 | 263 | 9.0 | 15.0 | 0.00 | 0.00 | 0.00 | 63 | 1016.4 |
| 20260904153007 | 60 | 288 | 7.0 | 15.0 | 0.00 | 0.00 | 0.00 | 62 | 1016.4 |
| 20260904152507 | 60 | 288 | 5.0 | 15.0 | 0.00 | 0.00 | 0.00 | 63 | 1016.5 |
| 20260904152006 | 60 | 295 | 8.0 | 14.0 | 0.00 | 0.00 | 0.00 | 62 | 1016.4 |
| 20260904151506 | 61 | 317 | 7.0 | 15.0 | 0.00 | 0.00 | 0.00 | 62 | 1016.4 |
| 20260904151006 | 61 | 293 | 7.0 | 15.0 | 0.00 | 0.00 | 0.00 | 61 | 1016.4 |
| 20260904150503 | 62 | 268 | 9.0 | 13.0 | 0.00 | 0.00 | 0.00 | 59 | 1016.3 |
| 20260904150002 | 62 | 340 | 5.0 | 12.0 | 0.00 | 0.00 | 0.00 | 57 | 1016.2 |
| 20260904145502 | 62 | 333 | 5.0 | 10.0 | 0.00 | 0.00 | 0.00 | 53 | 1016.2 |
| 20260904145002 | 62 | 248 | 0.0 | 4.0 | 0.00 | 0.00 | 0.00 | 47 | 1016.1 |
| 20260904144620 | 62 | 221 | 1.0 | 4.0 | 0.00 | 0.00 | 0.00 | 46 | 1016.1 |
| 20260904144100 | 62 | 227 | 1.0 | 7.0 | 0.00 | 0.00 | 0.00 | 47 | 1016.0 |
| 20260904143600 | 62 | 235 | 2.0 | 7.0 | 0.00 | 0.00 | 0.00 | 47 | 1015.9 |
| 20260904143100 | 61 | 261 | 3.0 | 6.0 | 0.00 | 0.00 | 0.00 | 50 | 1016.0 |
| 20260904142604 | 60 | 286 | 1.0 | 5.0 | 0.00 | 0.00 | 0.00 | 55 | 1015.9 |
| 20260904142101 | 60 | 311 | 1.0 | 4.0 | 0.00 | 0.00 | 0.00 | 56 | 1015.8 |
| 20260904141603 | 60 | 310 | 0.0 | 4.0 | 0.00 | 0.00 | 0.00 | 58 | 1015.9 |
| 20260904141059 | 60 | 286 | 1.0 | 6.0 | 0.00 | 0.00 | 0.00 | 57 | 1015.8 |
| 20260904140557 | 60 | 325 | 3.0 | 8.0 | 0.00 | 0.00 | 0.00 | 57 | 1015.7 |
| 20260904140055 | 62 | 288 | 4.0 | 8.0 | 0.00 | 0.00 | 0.00 | 53 | 1015.8 |
| 20260904135557 | 63 | 248 | 3.0 | 5.0 | 0.00 | 0.00 | 0.00 | 40 | 1015.7 |
| 20260904135055 | 63 | 246 | 3.0 | 9.0 | 0.00 | 0.00 | 0.00 | 40 | 1015.7 |
| 20260904134554 | 63 | 186 | 5.0 | 9.0 | 0.00 | 0.00 | 0.00 | 40 | 1015.7 |
| 20260904134054 | 63 | 198 | 4.0 | 8.0 | 0.00 | 0.00 | 0.00 | 40 | 1015.6 |
| 20260904133554 | 63 | 202 | 3.0 | 6.0 | 0.00 | 0.00 | 0.00 | 40 | 1015.6 |
| 20260904133054 | 63 | 182 | 3.0 | 7.0 | 0.00 | 0.00 | 0.00 | 40 | 1015.6 |
| 20260904132553 | 63 | 219 | 2.0 | 9.0 | 0.00 | 0.00 | 0.00 | 40 | 1015.5 |
| 20260904132053 | 63 | 172 | 4.0 | 9.0 | 0.00 | 0.00 | 0.00 | 39 | 1015.4 |
| 20260904131555 | 63 | 163 | 3.0 | 8.0 | 0.00 | 0.00 | 0.00 | 40 | 1015.4 |
| 20260904131052 | 63 | 182 | 5.0 | 10.0 | 0.00 | 0.00 | 0.00 | 40 | 1015.4 |
| 20260904130552 | 63 | 217 | 6.0 | 10.0 | 0.00 | 0.00 | 0.00 | 39 | 1015.3 |
| 20260904130052 | 63 | 178 | 5.0 | 11.0 | 0.00 | 0.00 | 0.00 | 40 | 1015.3 |
| 20260904125551 | 63 | 206 | 4.0 | 8.0 | 0.00 | 0.00 | 0.00 | 40 | 1015.3 |
| 20260904125051 | 63 | 194 | 3.0 | 7.0 | 0.00 | 0.00 | 0.00 | 40 | 1015.3 |
| 20260904124600 | 63 | 207 | 3.0 | 7.0 | 0.00 | 0.00 | 0.00 | 40 | 1015.3 |
| 20260904124054 | 63 | 219 | 0.0 | 5.0 | 0.00 | 0.00 | 0.00 | 40 | 1015.3 |
| 20260904123550 | 63 | 196 | 2.0 | 6.0 | 0.00 | 0.00 | 0.00 | 40 | 1015.3 |
| 20260904123050 | 63 | 193 | 3.0 | 10.0 | 0.00 | 0.00 | 0.00 | 40 | 1015.3 |
| 20260904122550 | 63 | 194 | 2.0 | 10.0 | 0.00 | 0.00 | 0.00 | 39 | 1015.3 |
| 20260904122050 | 63 | 205 | 3.0 | 7.0 | 0.00 | 0.00 | 0.00 | 40 | 1015.3 |
| 20260904121550 | 63 | 205 | 3.0 | 7.0 | 0.00 | 0.00 | 0.00 | 40 | 1015.3 |
| 20260904121051 | 63 | 202 | 1.0 | 5.0 | 0.00 | 0.00 | 0.00 | 40 | 1015.3 |
| 20260904120552 | 63 | 181 | 1.0 | 6.0 | 0.00 | 0.00 | 0.00 | 39 | 1015.3 |
| 20260904120051 | 63 | 161 | 2.0 | 11.0 | 0.00 | 0.00 | 0.00 | 39 | 1015.4 |
| 20260904115548 | 63 | 214 | 5.0 | 11.0 | 0.00 | 0.00 | 0.00 | 39 | 1015.4 |
| 20260904115048 | 63 | 171 | 5.0 | 10.0 | 0.00 | 0.00 | 0.00 | 39 | 1015.3 |
| 20260904114548 | 63 | 182 | 4.0 | 10.0 | 0.00 | 0.00 | 0.00 | 39 | 1015.3 |
| 20260904114048 | 63 | 194 | 4.0 | 11.0 | 0.00 | 0.00 | 0.00 | 39 | 1015.2 |
| 20260904113547 | 63 | 200 | 5.0 | 16.0 | 0.00 | 0.00 | 0.00 | 39 | 1015.3 |
| 20260904113051 | 63 | 203 | 7.0 | 16.0 | 0.00 | 0.00 | 0.00 | 39 | 1015.2 |
| 20260904112548 | 63 | 169 | 8.0 | 16.0 | 0.00 | 0.00 | 0.00 | 39 | 1015.2 |
| 20260904112051 | 63 | 207 | 5.0 | 14.0 | 0.00 | 0.00 | 0.00 | 39 | 1015.2 |
| 20260904111546 | 63 | 185 | 8.0 | 16.0 | 0.00 | 0.00 | 0.00 | 39 | 1015.2 |
| 20260904111045 | 63 | 200 | 6.0 | 12.0 | 0.00 | 0.00 | 0.00 | 39 | 1015.2 |
| 20260904110548 | 63 | 169 | 7.0 | 13.0 | 0.00 | 0.00 | 0.00 | 39 | 1015.2 |
| 20260904110045 | 63 | 167 | 6.0 | 17.0 | 0.00 | 0.00 | 0.00 | 39 | 1015.2 |
| 20260904105545 | 63 | 178 | 9.0 | 17.0 | 0.00 | 0.00 | 0.00 | 39 | 1015.1 |
| 20260904105043 | 63 | 182 | 11.0 | 15.0 | 0.00 | 0.00 | 0.00 | 39 | 1015.1 |
| 20260904104543 | 63 | 171 | 8.0 | 19.0 | 0.00 | 0.00 | 0.00 | 39 | 1015.1 |
| 20260904104042 | 63 | 180 | 8.0 | 19.0 | 0.00 | 0.00 | 0.00 | 39 | 1015.1 |
| 20260904103542 | 63 | 194 | 8.0 | 14.0 | 0.00 | 0.00 | 0.00 | 39 | 1015.1 |
| 20260904103045 | 63 | 184 | 8.0 | 12.0 | 0.00 | 0.00 | 0.00 | 39 | 1015.1 |
| 20260904102542 | 63 | 170 | 6.0 | 13.0 | 0.00 | 0.00 | 0.00 | 39 | 1015.0 |
| 20260904102042 | 63 | 161 | 6.0 | 13.0 | 0.00 | 0.00 | 0.00 | 39 | 1015.0 |
| 20260904101543 | 63 | 182 | 7.0 | 17.0 | 0.00 | 0.00 | 0.00 | 39 | 1015.1 |
| 20260904101044 | 63 | 181 | 7.0 | 17.0 | 0.00 | 0.00 | 0.00 | 39 | 1015.2 |
| 20260904100545 | 63 | 190 | 8.0 | 15.0 | 0.00 | 0.00 | 0.00 | 39 | 1015.2 |
| 20260904100043 | 63 | 203 | 9.0 | 16.0 | 0.00 | 0.00 | 0.00 | 39 | 1015.2 |
| 20260904095540 | 63 | 202 | 9.0 | 16.0 | 0.00 | 0.00 | 0.00 | 39 | 1015.2 |
| 20260904095044 | 63 | 170 | 10.0 | 16.0 | 0.00 | 0.00 | 0.00 | 39 | 1015.2 |
| 20260904094546 | 63 | 165 | 8.0 | 16.0 | 0.00 | 0.00 | 0.00 | 38 | 1015.2 |
| 20260904094038 | 63 | 147 | 8.0 | 20.0 | 0.00 | 0.00 | 0.00 | 38 | 1015.3 |
| 20260904093542 | 63 | 148 | 8.0 | 20.0 | 0.00 | 0.00 | 0.00 | 38 | 1015.2 |
| 20260904093037 | 63 | 186 | 10.0 | 18.0 | 0.00 | 0.00 | 0.00 | 38 | 1015.3 |
| 20260904092536 | 63 | 157 | 7.0 | 14.0 | 0.00 | 0.00 | 0.00 | 38 | 1015.4 |
| 20260904092036 | 63 | 172 | 8.0 | 17.0 | 0.00 | 0.00 | 0.00 | 38 | 1015.3 |
| 20260904091536 | 63 | 155 | 10.0 | 17.0 | 0.00 | 0.00 | 0.00 | 38 | 1015.4 |
| 20260904091035 | 63 | 180 | 8.0 | 11.0 | 0.00 | 0.00 | 0.00 | 38 | 1015.4 |
| 20260904090537 | 63 | 146 | 6.0 | 17.0 | 0.00 | 0.00 | 0.00 | 37 | 1015.5 |
| 20260904090034 | 63 | 191 | 6.0 | 17.0 | 0.00 | 0.00 | 0.00 | 37 | 1015.5 |
| 20260904085534 | 63 | 180 | 10.0 | 18.0 | 0.00 | 0.00 | 0.00 | 37 | 1015.6 |
| 20260904085035 | 63 | 222 | 10.0 | 18.0 | 0.00 | 0.00 | 0.00 | 37 | 1015.6 |
| 20260904084533 | 63 | 175 | 8.0 | 17.0 | 0.00 | 0.00 | 0.00 | 37 | 1015.6 |
| 20260904084032 | 63 | 165 | 7.0 | 18.0 | 0.00 | 0.00 | 0.00 | 37 | 1015.7 |
| 20260904083531 | 63 | 209 | 9.0 | 17.0 | 0.00 | 0.00 | 0.00 | 37 | 1015.7 |
| 20260904083034 | 63 | 162 | 9.0 | 14.0 | 0.00 | 0.00 | 0.00 | 37 | 1015.8 |
| 20260904082531 | 63 | 155 | 10.0 | 16.0 | 0.00 | 0.00 | 0.00 | 37 | 1015.8 |
| 20260904082029 | 63 | 184 | 8.0 | 16.0 | 0.00 | 0.00 | 0.00 | 37 | 1015.8 |
| 20260904081530 | 63 | 184 | 8.0 | 17.0 | 0.00 | 0.00 | 0.00 | 37 | 1015.9 |
| 20260904081029 | 63 | 188 | 7.0 | 17.0 | 0.00 | 0.00 | 0.00 | 37 | 1016.0 |
| 20260904080529 | 63 | 194 | 5.0 | 15.0 | 0.00 | 0.00 | 0.00 | 36 | 1016.0 |
| 20260904080029 | 63 | 158 | 10.0 | 18.0 | 0.00 | 0.00 | 0.00 | 36 | 1016.0 |
| 20260904075530 | 64 | 196 | 9.0 | 18.0 | 0.00 | 0.00 | 0.00 | 36 | 1016.0 |
| 20260904075026 | 63 | 225 | 7.0 | 20.0 | 0.00 | 0.00 | 0.00 | 36 | 1016.1 |
| 20260904074541 | 64 | 182 | 10.0 | 20.0 | 0.00 | 0.00 | 0.00 | 36 | 1016.1 |
| 20260904074025 | 63 | 164 | 10.0 | 17.0 | 0.00 | 0.00 | 0.00 | 36 | 1016.0 |
| 20260904073525 | 63 | 188 | 7.0 | 16.0 | 0.00 | 0.00 | 0.00 | 36 | 1015.9 |
| 20260904073025 | 64 | 172 | 9.0 | 22.0 | 0.00 | 0.00 | 0.00 | 35 | 1015.9 |
| 20260904072523 | 64 | 200 | 12.0 | 22.0 | 0.00 | 0.00 | 0.00 | 36 | 1015.9 |
| 20260904072022 | 63 | 158 | 4.0 | 15.0 | 0.00 | 0.00 | 0.00 | 36 | 1015.9 |
| 20260904071530 | 63 | 194 | 6.0 | 15.0 | 0.00 | 0.00 | 0.00 | 36 | 1016.0 |
| 20260904071025 | 63 | 158 | 6.0 | 15.0 | 0.00 | 0.00 | 0.00 | 36 | 1015.9 |
| 20260904070524 | 63 | 174 | 5.0 | 12.0 | 0.00 | 0.00 | 0.00 | 36 | 1015.8 |
| 20260904070020 | 64 | 198 | 5.0 | 12.0 | 0.00 | 0.00 | 0.00 | 36 | 1015.7 |
| 20260904065519 | 64 | 195 | 8.0 | 17.0 | 0.00 | 0.00 | 0.00 | 35 | 1015.8 |
| 20260904065019 | 64 | 186 | 7.0 | 16.0 | 0.00 | 0.00 | 0.00 | 35 | 1015.8 |
| 20260904064521 | 64 | 163 | 7.0 | 15.0 | 0.00 | 0.00 | 0.00 | 35 | 1015.7 |
| 20260904064019 | 64 | 196 | 9.0 | 17.0 | 0.00 | 0.00 | 0.00 | 35 | 1015.6 |
| 20260904063519 | 64 | 171 | 9.0 | 17.0 | 0.00 | 0.00 | 0.00 | 35 | 1015.6 |
| 20260904063019 | 64 | 189 | 9.0 | 13.0 | 0.00 | 0.00 | 0.00 | 35 | 1015.6 |
| 20260904062519 | 64 | 205 | 7.0 | 14.0 | 0.00 | 0.00 | 0.00 | 35 | 1015.7 |
| 20260904062019 | 64 | 173 | 9.0 | 15.0 | 0.00 | 0.00 | 0.00 | 35 | 1015.7 |
| 20260904061518 | 64 | 156 | 6.0 | 16.0 | 0.00 | 0.00 | 0.00 | 35 | 1015.7 |
| 20260904061019 | 64 | 207 | 8.0 | 17.0 | 0.00 | 0.00 | 0.00 | 35 | 1015.7 |
| 20260904060518 | 64 | 171 | 6.0 | 18.0 | 0.00 | 0.00 | 0.00 | 35 | 1015.6 |
| 20260904060018 | 64 | 142 | 10.0 | 18.0 | 0.00 | 0.00 | 0.00 | 35 | 1015.6 |
| 20260904055618 | 64 | 197 | 6.0 | 17.0 | 0.00 | 0.00 | 0.00 | 35 | 1015.7 |
| 20260904055019 | 64 | 198 | 8.0 | 15.0 | 0.00 | 0.00 | 0.00 | 35 | 1015.7 |
| 20260904054519 | 64 | 167 | 8.0 | 15.0 | 0.00 | 0.00 | 0.00 | 35 | 1015.7 |
| 20260904054017 | 64 | 184 | 8.0 | 22.0 | 0.00 | 0.00 | 0.00 | 35 | 1015.7 |
| 20260904053516 | 64 | 194 | 8.0 | 22.0 | 0.00 | 0.00 | 0.00 | 35 | 1015.7 |
| 20260904053016 | 64 | 204 | 6.0 | 15.0 | 0.00 | 0.00 | 0.00 | 35 | 1015.7 |
| 20260904052516 | 64 | 150 | 8.0 | 15.0 | 0.00 | 0.00 | 0.00 | 34 | 1015.7 |
| 20260904052016 | 65 | 183 | 5.0 | 14.0 | 0.00 | 0.00 | 0.00 | 34 | 1015.8 |
| 20260904051520 | 65 | 169 | 6.0 | 16.0 | 0.00 | 0.00 | 0.00 | 34 | 1015.8 |
| 20260904051015 | 65 | 175 | 4.0 | 17.0 | 0.00 | 0.00 | 0.00 | 34 | 1015.8 |
| 20260904050515 | 65 | 134 | 8.0 | 17.0 | 0.00 | 0.00 | 0.00 | 34 | 1015.7 |
| 20260904050015 | 65 | 156 | 4.0 | 15.0 | 0.00 | 0.00 | 0.00 | 34 | 1015.8 |
| 20260904045515 | 65 | 163 | 10.0 | 18.0 | 0.00 | 0.00 | 0.00 | 34 | 1015.7 |
| 20260904045015 | 65 | 223 | 8.0 | 18.0 | 0.00 | 0.00 | 0.00 | 33 | 1015.6 |
| 20260904044516 | 65 | 182 | 6.0 | 15.0 | 0.00 | 0.00 | 0.00 | 33 | 1015.6 |
| 20260904044017 | 65 | 194 | 6.0 | 26.0 | 0.00 | 0.00 | 0.00 | 33 | 1015.7 |
| 20260904043514 | 66 | 146 | 6.0 | 26.0 | 0.00 | 0.00 | 0.00 | 33 | 1015.7 |
| 20260904043014 | 66 | 176 | 7.0 | 16.0 | 0.00 | 0.00 | 0.00 | 34 | 1015.4 |
| 20260904042515 | 66 | 169 | 8.0 | 16.0 | 0.00 | 0.00 | 0.00 | 34 | 1015.5 |
| 20260904042012 | 66 | 165 | 6.0 | 12.0 | 0.00 | 0.00 | 0.00 | 34 | 1015.5 |
| 20260904041512 | 66 | 217 | 6.0 | 16.0 | 0.00 | 0.00 | 0.00 | 34 | 1015.5 |
| 20260904041017 | 66 | 234 | 9.0 | 16.0 | 0.00 | 0.00 | 0.00 | 34 | 1015.5 |
| 20260904040513 | 66 | 186 | 8.0 | 16.0 | 0.00 | 0.00 | 0.00 | 35 | 1015.4 |
| 20260904040013 | 65 | 193 | 9.0 | 19.0 | 0.00 | 0.00 | 0.00 | 35 | 1015.1 |
| 20260904035513 | 65 | 188 | 5.0 | 17.0 | 0.00 | 0.00 | 0.00 | 39 | 1015.0 |
| 20260904035012 | 65 | 223 | 10.0 | 17.0 | 0.00 | 0.00 | 0.00 | 37 | 1015.0 |
| 20260904034511 | 65 | 239 | 8.0 | 18.0 | 0.00 | 0.00 | 0.00 | 40 | 1015.0 |
| 20260904034012 | 65 | 241 | 11.0 | 19.0 | 0.00 | 0.00 | 0.00 | 39 | 1014.9 |
| 20260904033511 | 65 | 247 | 9.0 | 22.0 | 0.00 | 0.00 | 0.00 | 40 | 1014.8 |
| 20260904033010 | 65 | 191 | 12.0 | 23.0 | 0.00 | 0.00 | 0.00 | 40 | 1014.7 |
| 20260904032512 | 65 | 251 | 13.0 | 23.0 | 0.00 | 0.00 | 0.00 | 41 | 1014.5 |